Hourly Weather Sennicy

Today, 25 November, Wednesday

Time Temperature Precipitation Wind Pressure Humidity
00:00 +2°C° 0.1 mm 2 mps 754 mmHg 94%
01:00 +3°C° 0.1 mm 1 mps 754 mmHg 94%
02:00 +3°C° 0 mm 0 mps 754 mmHg 96%
03:00 +4°C° 0.4 mm 1 mps 754 mmHg 96%
04:00 +4°C° 0.4 mm 1 mps 754 mmHg 97%
05:00 +4°C° 0.4 mm 1 mps 754 mmHg 97%
06:00 +3°C° 0.1 mm 1 mps 754 mmHg 97%
07:00 +3°C° 0.1 mm 1 mps 755 mmHg 97%
08:00 +3°C° 0 mm 1 mps 755 mmHg 96%
09:00 +3°C° 0 mm 1 mps 756 mmHg 95%
10:00 +4°C° 0 mm 1 mps 756 mmHg 93%
11:00 +4°C° 0 mm 1 mps 756 mmHg 92%
12:00 +4°C° 0 mm 1 mps 757 mmHg 92%
13:00 +5°C° 0 mm 1 mps 757 mmHg 91%
14:00 +5°C° 0 mm 1 mps 757 mmHg 90%
15:00 +4°C° 0.3 mm 2 mps 757 mmHg 92%
16:00 +4°C° 0.3 mm 2 mps 757 mmHg 93%
17:00 +4°C° 0.3 mm 2 mps 757 mmHg 95%
18:00 +3°C° 0.6 mm 3 mps 757 mmHg 95%
19:00 +3°C° 0.6 mm 3 mps 756 mmHg 96%
20:00 +4°C° 0.6 mm 3 mps 756 mmHg 96%
21:00 +4°C° 0.2 mm 3 mps 756 mmHg 96%
22:00 +5°C° 0.2 mm 3 mps 756 mmHg 96%
23:00 +5°C° 0.2 mm 3 mps 755 mmHg 96%

Tomorrow, 26 November, Thursday

Time Temperature Precipitation Wind Pressure Humidity
00:00 +5°C° 0.2 mm 3 mps 755 mmHg 95%
01:00 +7°C° 0.2 mm 3 mps 755 mmHg 94%
02:00 +7°C° 0.2 mm 3 mps 755 mmHg 93%
03:00 +7°C° 0 mm 3 mps 755 mmHg 91%
04:00 +7°C° 0 mm 3 mps 754 mmHg 89%
05:00 +7°C° 0 mm 3 mps 754 mmHg 87%
06:00 +7°C° 0 mm 3 mps 754 mmHg 86%
07:00 +5°C° 0 mm 3 mps 754 mmHg 85%
08:00 +5°C° 0 mm 4 mps 754 mmHg 84%
09:00 +5°C° 0 mm 4 mps 754 mmHg 84%
10:00 +5°C° 0 mm 4 mps 753 mmHg 83%
11:00 +5°C° 0 mm 4 mps 753 mmHg 82%
12:00 +5°C° 0 mm 4 mps 753 mmHg 83%
13:00 +5°C° 0 mm 4 mps 752 mmHg 83%
14:00 +5°C° 0 mm 4 mps 752 mmHg 83%
15:00 +5°C° 0 mm 4 mps 752 mmHg 84%
16:00 +5°C° 0 mm 4 mps 751 mmHg 85%
17:00 +4°C° 0 mm 4 mps 751 mmHg 85%
18:00 +4°C° 0.2 mm 4 mps 751 mmHg 86%
19:00 +3°C° 0.2 mm 5 mps 750 mmHg 86%
20:00 +3°C° 0.2 mm 5 mps 750 mmHg 87%
21:00 +3°C° 0.4 mm 5 mps 750 mmHg 88%
22:00 +4°C° 0.4 mm 4 mps 750 mmHg 89%
23:00 +4°C° 0.4 mm 4 mps 749 mmHg 89%

Day after tomorrow, 27 November, Friday

Time Temperature Precipitation Wind Pressure Humidity
00:00 +4°C° 0.3 mm 4 mps 749 mmHg 90%
01:00 +4°C° 0.3 mm 3 mps 749 mmHg 90%
02:00 +4°C° 0.3 mm 3 mps 749 mmHg 90%
03:00 +4°C° 0.1 mm 3 mps 749 mmHg 91%
04:00 +3°C° 0.1 mm 3 mps 749 mmHg 91%
05:00 +3°C° 0.1 mm 3 mps 749 mmHg 91%
06:00 +2°C° 0 mm 3 mps 749 mmHg 87%
07:00 +1°C° 0 mm 4 mps 749 mmHg 82%
08:00 0°C° 0 mm 4 mps 750 mmHg 78%
09:00 0°C° 0 mm 4 mps 750 mmHg 81%
10:00 0°C° 0 mm 4 mps 750 mmHg 85%
11:00 0°C° 0 mm 4 mps 751 mmHg 89%
12:00 0°C° 0.2 mm 4 mps 751 mmHg 91%
13:00 -1°C° 0.2 mm 4 mps 751 mmHg 92%
14:00 -1°C° 0.2 mm 4 mps 752 mmHg 94%
15:00 -1°C° 0.3 mm 4 mps 752 mmHg 93%
16:00 0°C° 0.3 mm 3 mps 752 mmHg 91%
17:00 0°C° 0.3 mm 3 mps 753 mmHg 90%
18:00 -1°C° 0.1 mm 3 mps 753 mmHg 90%
19:00 -1°C° 0.1 mm 3 mps 754 mmHg 90%
20:00 -1°C° 0.1 mm 3 mps 754 mmHg 90%
21:00 -1°C° 0 mm 3 mps 754 mmHg 90%
22:00 -1°C° 0 mm 3 mps 755 mmHg 90%
23:00 -1°C° 0 mm 2 mps 755 mmHg 89%

28 November, Saturday

Time Temperature Precipitation Wind Pressure Humidity
00:00 -1°C° 0 mm 3 mps 756 mmHg 91%
01:00 0°C° 0 mm 3 mps 756 mmHg 93%
02:00 0°C° 0 mm 3 mps 757 mmHg 95%
03:00 0°C° 0 mm 3 mps 757 mmHg 94%
04:00 0°C° 0 mm 3 mps 757 mmHg 92%
05:00 +1°C° 0 mm 3 mps 758 mmHg 91%
06:00 0°C° 0.1 mm 3 mps 758 mmHg 93%
07:00 0°C° 0.1 mm 3 mps 759 mmHg 95%
08:00 0°C° 0.1 mm 3 mps 759 mmHg 97%
09:00 +1°C° 0.1 mm 3 mps 760 mmHg 95%
10:00 +1°C° 0.1 mm 3 mps 760 mmHg 93%
11:00 +1°C° 0.1 mm 3 mps 760 mmHg 91%
12:00 +1°C° 0 mm 3 mps 761 mmHg 89%
13:00 +1°C° 0 mm 3 mps 761 mmHg 87%
14:00 +1°C° 0 mm 3 mps 761 mmHg 86%
15:00 0°C° 0 mm 3 mps 762 mmHg 86%
16:00 0°C° 0 mm 3 mps 762 mmHg 86%
17:00 0°C° 0 mm 3 mps 762 mmHg 86%
18:00 -1°C° 0 mm 3 mps 763 mmHg 87%
19:00 -1°C° 0 mm 3 mps 763 mmHg 87%
20:00 -1°C° 0 mm 3 mps 763 mmHg 88%
21:00 -1°C° 0 mm 3 mps 764 mmHg 88%
22:00 -1°C° 0 mm 3 mps 764 mmHg 88%
23:00 -1°C° 0 mm 3 mps 764 mmHg 89%

29 November, Sunday

Time Temperature Precipitation Wind Pressure Humidity
00:00 -1°C° 0 mm 3 mps 764 mmHg 89%
01:00 -1°C° 0 mm 2 mps 764 mmHg 89%
02:00 -1°C° 0 mm 2 mps 764 mmHg 90%
03:00 -1°C° 0 mm 2 mps 765 mmHg 90%
04:00 -2°C° 0 mm 3 mps 765 mmHg 91%
05:00 -2°C° 0 mm 3 mps 765 mmHg 92%
06:00 -2°C° 0 mm 3 mps 765 mmHg 92%
07:00 -2°C° 0 mm 3 mps 765 mmHg 91%
08:00 -2°C° 0 mm 3 mps 765 mmHg 91%
09:00 -2°C° 0 mm 3 mps 765 mmHg 90%
10:00 -2°C° 0 mm 3 mps 766 mmHg 88%
11:00 -2°C° 0 mm 3 mps 766 mmHg 86%
12:00 -2°C° 0 mm 2 mps 766 mmHg 86%
13:00 -1°C° 0 mm 2 mps 766 mmHg 85%
14:00 -1°C° 0 mm 2 mps 765 mmHg 84%
15:00 -1°C° 0 mm 2 mps 765 mmHg 85%
16:00 -1°C° 0 mm 3 mps 765 mmHg 86%
17:00 -1°C° 0 mm 3 mps 765 mmHg 86%
18:00 -1°C° 0 mm 3 mps 765 mmHg 85%
19:00 -1°C° 0 mm 3 mps 765 mmHg 84%
20:00 -1°C° 0 mm 3 mps 765 mmHg 82%
21:00 -1°C° 0 mm 2 mps 765 mmHg 84%
22:00 -2°C° 0 mm 2 mps 764 mmHg 86%
23:00 -2°C° 0 mm 2 mps 764 mmHg 88%

30 November, Monday

Time Temperature Precipitation Wind Pressure Humidity
00:00 -2°C° 0 mm 2 mps 764 mmHg 90%
01:00 -2°C° 0 mm 3 mps 763 mmHg 91%
02:00 -2°C° 0 mm 3 mps 763 mmHg 92%
03:00 -2°C° 0.1 mm 3 mps 762 mmHg 93%
04:00 -1°C° 0.1 mm 3 mps 762 mmHg 94%
05:00 -1°C° 0.1 mm 2 mps 762 mmHg 95%
06:00 -1°C° 0 mm 2 mps 761 mmHg 95%
07:00 -1°C° 0 mm 2 mps 761 mmHg 95%
08:00 -1°C° 0 mm 2 mps 761 mmHg 95%
09:00 -1°C° 0.1 mm 2 mps 761 mmHg 96%
10:00 +1°C° 0.1 mm 2 mps 760 mmHg 96%
11:00 +1°C° 0.1 mm 2 mps 760 mmHg 96%
12:00 +1°C° 0.1 mm 2 mps 760 mmHg 96%
13:00 +1°C° 0.1 mm 2 mps 759 mmHg 96%
14:00 0°C° 0.1 mm 3 mps 759 mmHg 96%
15:00 0°C° 0.1 mm 3 mps 759 mmHg 97%
16:00 -1°C° 0.1 mm 3 mps 759 mmHg 97%
17:00 -1°C° 0.1 mm 3 mps 759 mmHg 97%
18:00 -1°C° 0.2 mm 3 mps 759 mmHg 96%
19:00 -1°C° 0.2 mm 3 mps 759 mmHg 96%
20:00 -1°C° 0.2 mm 3 mps 760 mmHg 95%
21:00 -2°C° 0 mm 3 mps 760 mmHg 94%
22:00 -4°C° 0 mm 3 mps 760 mmHg 93%
23:00 -4°C° 0 mm 3 mps 760 mmHg 92%
Show more